Location: Bartlett
(35.2045°N, 89.8740°W)
Time: 16:59:16
(UTC+00:00)

Transit 4A - Pass Details

Date: 21 December 2025
Orbit: 867 x 974 km, 66.8° (Epoch: 14 January)

Event Time Altitude Azimuth Distance (km) Brightness Sun altitude
Rises 10:09:18 0° 308° (NW) 3,568 - -34.8°
Reaches altitude 10° 10:13:43 10° 278° (W) 2,646 - -33.9°
Maximum altitude 10:15:45 12° 258° (WSW) 2,529 - -33.5°
Drops below altitude 10° 10:17:49 10° 238° (WSW) 2,664 - -33.1°
Sets 10:22:20 0° 208° (SSW) 3,626 - -32.2°
